FSKL5695-12

operational
NORAD ID: 64889 Int'l Des: NNA 2025-155 Owner: RATEKS Country: RU
LEOCIRCULARRETROGRADESSO

Über FSKL5695-12

Beschreibung wird geladen...

Live-Position

3D-Globus wird geladen...

Nächste Überflüge

Höhenverlauf

Altitude vs Time

uPlot chart will show altitude changes over time

Zweizeiliger Elementsatz

1 64889U 25155P 26062.17102356 .00007218 00000-0 28902-3 0 9996
2 64889 97.4480 30.3030 0007236 174.9800 185.1512 15.25334395 64547
Epoch: 3. März 2026 • Age: 22 hours

Aktueller Status

Höhe 500.8 km
Geschwindigkeit 7.62 km/s
Subsatellitenpunkt 52.43°N, 105.19°W
Startdatum 25. Juli 2025
Alter 0.6 years
Typ other

Technische Details

Klassifizierung Payload
Masse 3.00 kg
Trockenmasse 3.00 kg
Gesamtmasse 3.00 kg
Länge 0.30 m
Durchmesser 0.10 m
Spannweite 0.30 m
Form Box
Hersteller RATEKS
Bus-Typ Cubesat 3U
Phasenstatus In Orbit
Besitzer/Staat RATEKS/RU

Große Konstellationen

Loading constellations...